GW5604 Weather Reports


time (UTC)temp
C
wind
direction
speed
KPH
gust
KPH
rain 1hr
cm
rain 24hr
cm
rain mn
cm
humidity
%
barometer
mb
20260508165037 12 12 8.0 9.7 0.00 0.00 0.00 40 1017.3
20260508164533 12 159 1.6 1.6 0.00 0.00 0.00 42 1017.5
20260508164031 13 195 3.2 3.2 0.00 0.00 0.00 42 1017.3
20260508163528 13 156 3.2 3.2 0.00 0.00 0.00 38 1017.6
20260508163024 12 150 4.8 4.8 0.00 0.00 0.00 41 1017.3
20260508162521 12 12 4.8 4.8 0.00 0.00 0.00 38 1017.3
20260508162019 12 53 6.4 9.7 0.00 0.00 0.00 39 1017.5
20260508161515 11 118 3.2 4.8 0.00 0.00 0.00 41 1017.4
20260508161013 11 112 4.8 4.8 0.00 0.00 0.00 40 1017.7
20260508160511 12 281 8.0 9.7 0.00 0.00 0.00 39 1017.6
20260508160008 12 125 4.8 4.8 0.00 0.00 0.00 43 1017.6
20260508155504 12 118 3.2 3.2 0.00 0.00 0.00 41 1017.7
20260508155001 11 168 3.2 3.2 0.00 0.00 0.00 42 1017.7
20260508154459 11 203 6.4 9.7 0.00 0.00 0.00 44 1017.9
20260508153955 12 322 4.8 8.0 0.00 0.00 0.00 45 1018.0
20260508153452 11 306 4.8 8.0 0.00 0.00 0.00 45 1018.0
20260508152948 11 275 4.8 8.0 0.00 0.00 0.00 44 1017.6
20260508152445 11 27 4.8 4.8 0.00 0.00 0.00 47 1017.9
20260508151941 12 205 3.2 3.2 0.00 0.00 0.00 49 1018.0
20260508151438 11 89 1.6 3.2 0.00 0.00 0.00 49 1017.7
20260508150935 11 266 4.8 8.0 0.00 0.00 0.00 50 1018.0
20260508150431 11 309 4.8 4.8 0.00 0.00 0.00 50 1018.0
20260508145927 11 139 3.2 3.2 0.00 0.00 0.00 48 1017.9
20260508145424 11 199 3.2 3.2 0.00 0.00 0.00 54 1017.9
20260508144921 11 24 8.0 11.3 0.00 0.00 0.00 48 1017.9
20260508144419 11 149 1.6 1.6 0.00 0.00 0.00 50 1017.6
20260508143916 11 9 6.4 8.0 0.00 0.00 0.00 48 1017.6
20260508143413 10 132 1.6 1.6 0.00 0.00 0.00 52 1017.7
20260508142910 11 276 3.2 4.8 0.00 0.00 0.00 51 1018.0
20260508142407 11 196 1.6 3.2 0.00 0.00 0.00 49 1017.7
20260508141903 10 151 1.6 1.6 0.00 0.00 0.00 46 1017.9
20260508141400 10 160 4.8 4.8 0.00 0.00 0.00 44 1017.7
20260508140858 10 198 3.2 3.2 0.00 0.00 0.00 42 1017.9
20260508140355 10 176 3.2 3.2 0.00 0.00 0.00 39 1017.7
20260508135850 10 215 1.6 3.2 0.00 0.00 0.00 40 1017.9
20260508135347 10 165 3.2 4.8 0.00 0.00 0.00 40 1017.9
20260508134843 10 137 4.8 8.0 0.00 0.00 0.00 44 1017.7
20260508134340 10 175 3.2 3.2 0.00 0.00 0.00 41 1017.7
20260508133836 10 135 3.2 3.2 0.00 0.00 0.00 44 1017.4
20260508133335 10 150 1.6 1.6 0.00 0.00 0.00 43 1017.3
20260508132831 10 176 1.6 1.6 0.00 0.00 0.00 42 1017.6
20260508132329 8 169 0.0 1.6 0.00 0.00 0.00 44 1017.5
20260508131825 8 168 0.0 0.0 0.00 0.00 0.00 44 1017.3
20260508131321 8 136 4.8 4.8 0.00 0.00 0.00 50 1017.4
20260508130818 8 166 1.6 3.2 0.00 0.00 0.00 48 1017.4
20260508130315 8 164 1.6 1.6 0.00 0.00 0.00 49 1017.4
20260508125811 8 150 1.6 3.2 0.00 0.00 0.00 49 1017.3
20260508125307 7 152 1.6 3.2 0.00 0.00 0.00 49 1017.3
20260508124805 7 162 1.6 1.6 0.00 0.00 0.00 52 1017.4
20260508124302 7 159 1.6 1.6 0.00 0.00 0.00 56 1017.2
20260508123800 7 152 1.6 1.6 0.00 0.00 0.00 56 1017.3
20260508123258 7 158 1.6 1.6 0.00 0.00 0.00 57 1017.2
20260508122754 7 146 1.6 1.6 0.00 0.00 0.00 57 1017.1
20260508122251 7 160 0.0 1.6 0.00 0.00 0.00 58 1017.0
20260508121748 7 163 1.6 1.6 0.00 0.00 0.00 60 1017.1
20260508121247 7 154 1.6 1.6 0.00 0.00 0.00 60 1016.8
20260508120743 6 162 1.6 1.6 0.00 0.00 0.00 61 1016.8
20260508120242 6 151 1.6 1.6 0.00 0.00 0.00 61 1016.8
20260508115739 6 154 1.6 1.6 0.00 0.00 0.00 62 1016.7
20260508115237 5 107 3.2 3.2 0.00 0.00 0.00 64 1016.7
20260508114733 5 133 4.8 4.8 0.00 0.00 0.00 66 1016.4
20260508114230 5 134 3.2 3.2 0.00 0.00 0.00 64 1016.4
20260508113726 5 158 3.2 3.2 0.00 0.00 0.00 65 1016.5
20260508113225 5 158 1.6 1.6 0.00 0.00 0.00 64 1016.3
20260508112721 5 156 0.0 1.6 0.00 0.00 0.00 64 1016.4
20260508112218 5 154 3.2 4.8 0.00 0.00 0.00 64 1015.9
20260508111714 5 140 1.6 1.6 0.00 0.00 0.00 65 1015.9
20260508111212 5 97 6.4 9.7 0.00 0.00 0.00 66 1016.1
20260508110709 5 131 4.8 8.0 0.00 0.00 0.00 67 1015.9
20260508110206 4 147 6.4 9.7 0.00 0.00 0.00 69 1015.8
20260508105701 4 136 3.2 3.2 0.00 0.00 0.00 70 1015.8
20260508105158 4 153 4.8 4.8 0.00 0.00 0.00 71 1015.6
20260508104655 4 110 3.2 4.8 0.00 0.00 0.00 73 1015.7
20260508104152 4 134 6.4 11.3 0.00 0.00 0.00 73 1015.4
20260508103649 4 148 1.6 3.2 0.00 0.00 0.00 73 1015.4
20260508103146 4 151 4.8 8.0 0.00 0.00 0.00 73 1015.3
20260508102643 4 138 4.8 4.8 0.00 0.00 0.00 72 1015.4
20260508102141 4 152 1.6 1.6 0.00 0.00 0.00 72 1015.2
20260508101638 4 136 3.2 3.2 0.00 0.00 0.00 72 1014.9
20260508101136 4 117 4.8 4.8 0.00 0.00 0.00 71 1014.9
20260508100633 5 120 6.4 8.0 0.00 0.00 0.00 72 1014.9
20260508100131 5 108 6.4 9.7 0.00 0.00 0.00 72 1014.7
20260508095627 5 125 8.0 9.7 0.00 0.00 0.00 71 1014.8
20260508095124 5 137 6.4 11.3 0.00 0.00 0.00 72 1014.6
20260508094621 5 145 11.3 12.9 0.00 0.00 0.00 73 1014.4
20260508094118 5 151 8.0 9.7 0.00 0.00 0.00 75 1014.3
20260508093615 5 134 11.3 17.7 0.00 0.00 0.00 75 1014.5
20260508093113 5 160 8.0 12.9 0.00 0.00 0.00 74 1014.3
20260508092610 5 91 9.7 12.9 0.00 0.00 0.00 75 1014.3
20260508092109 4 146 11.3 22.5 0.00 0.00 0.00 77 1014.4
20260508091605 4 83 9.7 14.5 0.00 0.00 0.00 77 1014.5
20260508091102 4 109 9.7 11.3 0.00 0.00 0.00 78 1014.4
20260508090600 4 93 8.0 11.3 0.00 0.00 0.00 79 1014.6
20260508090056 5 83 9.7 11.3 0.00 0.00 0.00 78 1014.4
20260508085553 5 102 9.7 12.9 0.00 0.00 0.00 76 1014.2
20260508085051 5 98 9.7 11.3 0.00 0.00 0.00 77 1013.8
20260508084547 5 107 12.9 16.1 0.00 0.00 0.00 76 1014.4
20260508084044 5 88 11.3 14.5 0.00 0.00 0.00 76 1014.0
20260508083541 5 128 8.0 9.7 0.00 0.00 0.00 76 1013.8
20260508083038 5 134 11.3 14.5 0.00 0.00 0.00 76 1014.3
20260508082534 5 133 8.0 11.3 0.00 0.00 0.00 75 1014.3
20260508082032 5 127 9.7 17.7 0.00 0.00 0.00 76 1014.0
20260508081529 5 126 9.7 12.9 0.00 0.00 0.00 76 1014.2
20260508081025 5 85 11.3 12.9 0.00 0.00 0.00 76 1014.2
20260508080523 5 177 9.7 14.5 0.00 0.00 0.00 77 1014.2
20260508080020 5 124 14.5 20.9 0.00 0.00 0.00 77 1014.2
20260508075516 5 115 11.3 12.9 0.00 0.00 0.00 78 1013.9
20260508075014 5 82 9.7 12.9 0.00 0.00 0.00 80 1014.0
20260508074512 5 112 11.3 17.7 0.00 0.00 0.00 80 1013.9
20260508074008 5 107 11.3 14.5 0.00 0.00 0.00 81 1013.7
20260508073506 5 92 16.1 24.1 0.00 0.00 0.00 81 1013.8
20260508073003 5 134 12.9 17.7 0.00 0.00 0.00 83 1013.7
20260508072458 5 100 19.3 25.7 0.00 0.00 0.00 84 1013.6
20260508071956 5 166 16.1 17.7 0.00 0.00 0.00 86 1013.9
20260508071454 5 140 11.3 16.1 0.00 0.00 0.00 87 1013.4
20260508070951 5 113 12.9 24.1 0.00 0.00 0.00 89 1013.5
20260508070449 5 137 16.1 20.9 0.00 0.00 0.00 91 1013.8
20260508065947 5 131 14.5 17.7 0.00 0.00 0.00 92 1014.0
20260508065445 5 81 12.9 17.7 0.00 0.00 0.00 93 1013.8
20260508064943 5 123 12.9 17.7 0.00 0.00 0.00 94 1013.8
20260508064440 5 132 14.5 20.9 0.00 0.00 0.00 93 1013.8
20260508063937 5 123 16.1 24.1 0.00 0.00 0.00 93 1013.6
20260508063434 5 109 12.9 25.7 0.00 0.00 0.00 94 1013.7
20260508062932 5 138 14.5 16.1 0.00 0.00 0.00 94 1013.5
20260508062429 5 112 12.9 20.9 0.00 0.00 0.00 96 1013.4
20260508061926 5 122 14.5 20.9 0.00 0.00 0.00 97 1013.6
20260508061424 5 41 12.9 17.7 0.00 0.00 0.00 97 1013.8
20260508060920 5 162 9.7 17.7 0.00 0.00 0.00 96 1013.5
20260508060417 5 231 16.1 24.1 0.00 0.00 0.00 96 1013.3
20260508055913 6 111 11.3 16.1 0.00 0.00 0.00 96 1013.7
20260508055410 6 115 16.1 24.1 0.00 0.00 0.00 95 1013.7
20260508054906 6 113 16.1 22.5 0.00 0.00 0.00 94 1013.8
20260508054404 6 137 16.1 16.1 0.00 0.00 0.00 94 1013.5
20260508053900 6 88 20.9 37.0 0.00 0.00 0.00 94 1013.6
20260508053358 6 140 16.1 17.7 0.00 0.00 0.00 94 1013.7
20260508052855 6 82 22.5 29.0 0.00 0.00 0.00 94 1013.6
20260508052353 6 123 16.1 20.9 0.00 0.00 0.00 94 1013.8
20260508051849 6 152 12.9 16.1 0.00 0.00 0.00 94 1013.8
20260508051344 6 129 14.5 16.1 0.00 0.00 0.00 93 1013.9
20260508050841 6 98 19.3 24.1 0.00 0.00 0.00 94 1013.7
20260508050338 6 83 16.1 17.7 0.00 0.00 0.00 94 1013.5
20260508045833 6 89 17.7 22.5 0.00 0.00 0.00 93 1013.8
20260508045331 6 80 19.3 24.1 0.00 0.00 0.00 93 1013.9
20260508044829 6 144 12.9 14.5 0.00 0.00 0.00 93 1013.9
20260508044325 6 155 16.1 20.9 0.00 0.00 0.00 94 1013.7
20260508043821 6 98 14.5 17.7 0.00 0.00 0.00 93 1013.6
20260508043319 6 137 14.5 16.1 0.00 0.00 0.00 94 1013.7
20260508042815 6 116 19.3 25.7 0.00 0.00 0.00 94 1013.6
20260508042313 6 171 14.5 17.7 0.00 0.00 0.00 92 1013.8
20260508041809 6 129 14.5 17.7 0.00 0.00 0.00 92 1013.5
20260508041306 6 117 14.5 20.9 0.00 0.00 0.00 94 1013.3
20260508040802 6 157 14.5 14.5 0.00 0.00 0.00 93 1013.5
20260508040300 6 105 14.5 20.9 0.00 0.00 0.00 94 1013.5
20260508035757 6 91 14.5 16.1 0.00 0.10 0.10 95 1013.8
20260508035254 6 144 12.9 14.5 0.00 0.10 0.10 96 1013.8
20260508034751 6 82 14.5 20.9 0.00 0.10 0.10 97 1014.0
20260508034248 6 106 8.0 11.3 0.00 0.10 0.10 97 1014.2
20260508033745 6 162 12.9 16.1 0.00 0.10 0.10 97 1014.0
20260508033243 6 106 11.3 14.5 0.00 0.10 0.10 97 1014.5
20260508032741 6 151 11.3 22.5 0.00 0.10 0.10 96 1014.2
20260508032237 6 113 11.3 16.1 0.00 0.10 0.10 96 1014.2
20260508031734 6 113 12.9 20.9 0.00 0.10 0.10 96 1014.3
20260508031231 6 73 17.7 22.5 0.00 0.10 0.10 96 1013.9
20260508030727 6 110 14.5 22.5 0.00 0.10 0.10 97 1013.8
20260508030225 6 137 12.9 14.5 0.00 0.10 0.10 97 1014.0
20260508025721 6 106 11.3 14.5 0.00 0.10 0.10 97 1014.0
20260508025218 6 149 9.7 11.3 0.00 0.10 0.10 97 1014.2
20260508024714 6 97 9.7 11.3 0.00 0.10 0.10 96 1013.9
20260508024211 6 85 8.0 11.3 0.00 0.10 0.10 96 1014.3
20260508023707 6 131 8.0 11.3 0.00 0.10 0.10 96 1014.0
20260508023206 6 115 9.7 14.5 0.00 0.10 0.10 96 1014.3
20260508022701 6 148 8.0 11.3 0.00 0.10 0.10 95 1014.0
20260508022158 6 91 8.0 12.9 0.00 0.10 0.10 95 1014.0
20260508021654 6 107 8.0 11.3 0.00 0.10 0.10 95 1013.8
20260508021149 6 82 9.7 11.3 0.00 0.10 0.10 94 1013.8
20260508020648 6 96 11.3 12.9 0.00 0.10 0.10 94 1013.8
20260508020145 6 115 11.3 17.7 0.00 0.10 0.10 95 1013.7
20260508015642 6 95 11.3 14.5 0.00 0.10 0.10 94 1013.6
20260508015139 6 124 11.3 12.9 0.00 0.10 0.10 94 1013.6
20260508014635 6 144 11.3 20.9 0.00 0.10 0.10 93 1013.5
20260508014132 6 92 12.9 16.1 0.00 0.10 0.10 92 1013.5
20260508013628 6 121 9.7 16.1 0.00 0.10 0.10 92 1013.5
20260508013125 6 111 17.7 20.9 0.00 0.10 0.10 92 1013.0
20260508012623 6 110 11.3 17.7 0.00 0.10 0.10 92 1013.1
20260508012119 6 148 9.7 14.5 0.00 0.10 0.10 92 1013.0
20260508011618 6 63 12.9 14.5 0.00 0.10 0.10 91 1012.9
20260508011115 6 98 14.5 24.1 0.00 0.10 0.10 90 1012.7
20260508010611 6 159 9.7 12.9 0.00 0.10 0.10 90 1012.8
20260508010110 6 98 12.9 16.1 0.00 0.10 0.10 89 1013.0
20260508005606 6 113 16.1 24.1 0.00 0.10 0.10 91 1012.7
20260508005102 6 102 11.3 11.3 0.00 0.10 0.10 91 1012.8
20260508004558 6 123 11.3 14.5 0.00 0.10 0.10 92 1012.7
20260508004055 6 105 8.0 11.3 0.00 0.10 0.10 92 1012.6
20260508003552 6 108 9.7 12.9 0.00 0.10 0.10 92 1012.6
20260508003049 6 91 9.7 12.9 0.00 0.10 0.10 92 1012.7
20260508002545 6 89 12.9 16.1 0.00 0.10 0.10 93 1012.4
20260508002043 6 158 12.9 16.1 0.00 0.10 0.10 93 1012.4
20260508001538 6 106 11.3 12.9 0.00 0.10 0.10 92 1012.5
20260508001035 6 94 11.3 12.9 0.00 0.10 0.10 92 1012.5
20260508000531 6 129 14.5 20.9 0.00 0.10 0.10 92 1012.4
20260508000029 7 86 17.7 24.1 0.00 0.10 0.10 92 1012.1
20260507235525 7 72 17.7 24.1 0.00 0.10 0.10 91 1012.2
20260507235022 7 100 14.5 24.1 0.00 0.10 0.10 92 1012.1
20260507234518 7 124 16.1 22.5 0.00 0.10 0.10 91 1012.5
20260507234015 7 87 17.7 24.1 0.00 0.10 0.10 91 1012.6
20260507233512 7 116 12.9 17.7 0.00 0.10 0.10 90 1012.5
20260507233011 7 100 9.7 12.9 0.00 0.10 0.10 91 1012.4
20260507232507 7 103 17.7 27.4 0.00 0.10 0.10 90 1012.5
20260507232004 7 148 12.9 20.9 0.00 0.10 0.10 90 1012.5
20260507231500 7 97 11.3 17.7 0.00 0.10 0.10 90 1012.7
20260507230957 7 159 8.0 9.7 0.00 0.10 0.10 91 1012.7
20260507230454 7 100 11.3 17.7 0.00 0.10 0.10 91 1012.4
20260507225949 7 99 11.3 16.1 0.00 0.10 0.10 90 1012.7
20260507225446 7 98 17.7 27.4 0.00 0.10 0.10 91 1012.1
20260507224942 7 163 14.5 20.9 0.00 0.10 0.10 92 1012.5
20260507224438 7 102 11.3 16.1 0.00 0.10 0.10 93 1011.9
20260507223936 7 137 9.7 14.5 0.00 0.10 0.10 95 1012.0
20260507223431 7 125 9.7 16.1 0.00 0.10 0.10 96 1012.0
20260507222928 7 74 11.3 16.1 0.00 0.10 0.10 95 1011.9
20260507222425 7 96 17.7 27.4 0.00 0.10 0.10 94 1012.0
20260507221921 7 79 11.3 16.1 0.00 0.10 0.10 92 1012.0
20260507221418 7 78 11.3 12.9 0.00 0.10 0.10 93 1011.8
20260507220914 7 134 17.7 25.7 0.00 0.10 0.10 92 1011.7
20260507220412 7 153 14.5 25.7 0.00 0.10 0.10 92 1011.8
20260507215908 7 126 8.0 11.3 0.00 0.10 0.10 92 1011.6
20260507215405 7 107 9.7 14.5 0.00 0.10 0.10 93 1011.5
20260507214902 7 147 14.5 20.9 0.00 0.10 0.10 93 1011.8
20260507214400 8 99 6.4 8.0 0.00 0.10 0.10 92 1011.6
20260507213855 8 154 14.5 17.7 0.00 0.10 0.10 91 1011.7
20260507213352 10 131 9.7 11.3 0.00 0.10 0.10 90 1011.3
20260507212849 8 111 8.0 16.1 0.00 0.10 0.10 91 1011.2
20260507212345 8 118 11.3 22.5 0.00 0.10 0.10 92 1011.3
20260507211842 8 77 11.3 17.7 0.00 0.10 0.10 92 1011.0
20260507211338 8 126 9.7 16.1 0.00 0.10 0.10 92 1011.1
20260507210835 9 73 14.5 20.9 0.00 0.10 0.10 91 1011.2
20260507210332 9 81 9.7 12.9 0.00 0.10 0.10 91 1010.8
20260507205829 9 107 14.5 27.4 0.00 0.10 0.10 90 1010.7
20260507205326 9 132 9.7 14.5 0.00 0.10 0.10 90 1010.7
20260507204822 10 68 11.3 16.1 0.00 0.10 0.10 89 1010.6
20260507204319 10 107 19.3 32.2 0.00 0.10 0.10 88 1010.7
20260507203817 10 75 17.7 25.7 0.00 0.10 0.10 88 1010.3
20260507203315 10 87 11.3 12.9 0.00 0.10 0.10 87 1010.5
20260507202811 10 64 14.5 27.4 0.00 0.10 0.10 87 1010.7
20260507202307 10 89 8.0 11.3 0.00 0.10 0.10 86 1010.6
20260507201802 10 94 17.7 25.7 0.00 0.10 0.10 86 1010.2
20260507201258 10 55 9.7 14.5 0.00 0.10 0.10 87 1010.3
20260507200755 10 93 11.3 14.5 0.00 0.10 0.10 87 1010.5
20260507200251 10 61 9.7 12.9 0.00 0.10 0.10 88 1010.5
20260507195747 11 82 9.7 16.1 0.00 0.10 0.10 87 1010.6
20260507195245 11 114 8.0 20.9 0.00 0.10 0.10 86 1010.8
20260507194742 11 108 8.0 11.3 0.00 0.10 0.10 86 1010.7
20260507194238 11 122 6.4 9.7 0.00 0.10 0.10 88 1010.7
20260507193734 11 123 12.9 16.1 0.00 0.10 0.10 86 1010.7
20260507193231 11 90 12.9 17.7 0.00 0.10 0.10 87 1010.8
20260507192727 11 156 12.9 14.5 0.00 0.10 0.10 86 1011.0
20260507192224 12 110 9.7 12.9 0.00 0.10 0.10 83 1011.1
20260507191720 12 135 4.8 4.8 0.00 0.10 0.10 84 1010.8
20260507191218 13 55 14.5 22.5 0.00 0.10 0.10 82 1011.0
20260507190714 13 102 8.0 11.3 0.00 0.10 0.10 83 1011.1
20260507190213 13 112 8.0 9.7 0.00 0.10 0.10 84 1011.2
20260507185711 12 164 9.7 11.3 0.00 0.10 0.10 84 1011.2
20260507185208 13 179 14.5 22.5 0.00 0.10 0.10 83 1011.2
20260507184705 13 128 14.5 22.5 0.00 0.10 0.10 83 1011.3
20260507184203 13 118 6.4 8.0 0.00 0.10 0.10 83 1011.2
20260507183659 12 105 8.0 12.9 0.00 0.10 0.10 84 1011.3
20260507183156 12 176 12.9 20.9 0.00 0.10 0.10 84 1011.5
20260507182654 12 75 9.7 14.5 0.00 0.10 0.10 84 1011.6
20260507182149 12 134 11.3 16.1 0.00 0.10 0.10 84 1011.6
20260507181645 12 132 9.7 16.1 0.00 0.10 0.10 85 1011.3
20260507181142 12 120 14.5 16.1 0.00 0.10 0.10 86 1011.7
20260507180638 12 104 6.4 9.7 0.00 0.10 0.10 87 1011.6
20260507180136 12 87 9.7 12.9 0.00 0.10 0.10 88 1011.6
20260507175631 12 94 6.4 8.0 0.00 0.10 0.10 87 1011.1
20260507175129 12 147 12.9 16.1 0.00 0.10 0.10 87 1011.5
20260507174626 12 104 8.0 12.9 0.00 0.10 0.10 87 1011.3
20260507174124 13 117 4.8 8.0 0.00 0.10 0.10 88 1011.3
20260507173621 12 143 11.3 12.9 0.00 0.10 0.10 89 1011.2
20260507173118 12 117 6.4 8.0 0.00 0.10 0.10 89 1011.1
20260507172613 12 132 8.0 11.3 0.00 0.10 0.10 90 1011.1
20260507172111 13 142 6.4 12.9 0.00 0.10 0.10 88 1011.3
20260507171606 13 95 6.4 11.3 0.00 0.10 0.10 90 1011.2
20260507171103 13 40 4.8 11.3 0.00 0.10 0.10 90 1011.3
20260507170600 13 134 1.6 3.2 0.00 0.10 0.10 89 1011.3
20260507170057 13 129 4.8 4.8 0.00 0.10 0.10 89 1011.3
20260507165553 13 155 4.8 8.0 0.00 0.10 0.10 89 1011.2